Wind_Speed
32 32 30 27 27 28 30 32 33 30 28 29 27 23 20 21 26 30 31 31 33 35 36 37 37 37 35 34 35 36 36 35 34 34 32 32 31 31 33 35 36 35 36 38
32 30 26 29 30 31 32 33 31 29 30 31 30 28 25 23 25 28 30 32 36 38 39 38 39 39 38 37 37 37 38 39 38 36 35 35 35 36 39 40 39 38 39 41
29 23 28 31 31 30 31 31 30 30 31 33 34 32 27 25 25 27 31 35 39 42 43 43 42 41 40 38 37 38 40 41 40 39 38 37 38 40 42 43 42 41 42 45
28 28 31 32 31 29 28 27 28 30 33 34 35 35 30 29 29 31 33 36 39 42 43 43 42 38 36 36 37 39 41 42 42 40 39 39 39 41 43 43 42 43 44 45
27 29 31 30 28 28 25 24 25 28 31 33 33 36 33 32 35 36 38 38 39 42 43 40 35 33 33 36 38 39 41 41 41 40 40 39 38 39 42 43 43 45 45 46
26 30 32 28 25 23 21 21 25 27 28 26 21 29 28 26 34 39 42 42 41 42 41 36 32 32 34 36 39 41 40 39 38 38 38 38 38 39 41 42 44 46 46 48
30 33 35 32 27 22 20 22 24 24 22 16 13 20 15 17 26 31 32 31 31 32 32 31 31 32 35 38 41 42 42 37 35 36 37 38 38 39 41 43 44 45 47 47
30 33 33 31 26 21 21 22 22 21 19 15 17 17 14 18 20 21 21 20 21 24 27 29 30 32 37 41 43 42 40 35 31 33 35 37 39 40 41 43 44 46 47 48
29 30 27 25 21 19 19 21 21 22 22 20 20 19 18 20 20 20 20 20 21 23 26 29 33 36 40 42 42 39 35 30 30 33 36 39 41 43 45 46 47 48 49 51
25 29 28 26 25 26 24 21 23 25 25 24 22 20 21 24 25 27 27 25 26 29 31 32 34 36 36 37 36 35 31 30 32 35 39 42 45 47 47 48 49 49 50 50
27 30 32 29 25 26 26 27 26 25 24 24 23 21 21 22 24 27 29 29 29 32 34 35 36 37 37 37 36 32 30 31 34 38 42 45 48 50 50 50 50 50 51 53
32 33 33 32 25 24 26 29 28 26 25 23 24 24 25 27 28 29 31 33 34 35 35 37 38 39 37 36 34 30 30 33 37 41 45 48 50 51 50 49 51 53 55 56
36 36 35 33 29 28 29 30 29 28 27 25 25 28 31 32 32 33 35 37 39 39 39 39 37 37 37 36 33 32 33 36 40 44 47 49 49 48 50 52 54 57 58 58
39 39 38 38 38 37 33 33 33 32 30 29 30 33 35 36 36 37 39 41 42 42 39 36 37 38 36 35 34 34 36 39 43 46 48 49 51 53 55 57 59 59 58 57
40 41 40 40 41 42 40 37 36 37 36 35 36 38 41 42 43 43 44 45 42 37 33 34 37 39 39 37 36 37 39 42 45 48 50 53 55 57 59 60 59 58 57 56
42 41 41 41 41 43 44 44 42 41 43 44 45 46 46 46 47 48 48 46 38 31 32 36 41 42 43 42 43 43 44 46 49 51 53 55 57 58 58 57 57 57 57 58
43 43 41 40 39 40 44 47 46 45 45 46 47 48 48 50 51 51 50 45 38 37 38 41 44 45 46 47 47 47 48 49 50 52 52 53 53 53 52 54 56 57 58 58
43 44 44 41 38 35 38 43 45 47 48 49 47 46 45 45 45 45 45 45 45 46 46 47 48 48 48 48 48 48 48 48 49 48 47 47 48 49 52 53 55 55 54 54
39 39 38 36 35 33 32 35 39 42 45 47 49 50 50 48 48 49 50 50 49 50 49 49 48 47 46 46 47 46 46 45 43 42 43 45 48 49 51 52 52 52 51 50
34 36 36 36 35 35 34 34 37 39 43 43 44 46 48 48 47 48 49 50 50 49 48 47 46 45 45 45 45 44 43 40 40 41 43 45 47 48 48 49 49 49 47 46
26 30 31 33 33 34 34 33 33 36 38 40 42 44 46 47 47 47 47 47 48 48 47 46 44 43 43 43 43 41 39 38 38 39 40 42 44 45 46 46 45 44 43 43
18 20 21 22 23 25 25 25 26 28 30 33 37 39 41 43 44 45 45 45 45 44 42 41 41 41 41 41 39 38 36 36 37 38 40 42 43 42 41 41 41 42 42 42
19 19 19 20 22 23 23 23 23 23 24 27 30 33 35 37 39 40 41 41 40 38 38 38 39 39 39 37 35 34 34 35 36 38 38 39 39 39 40 41 41 41 40 38
15 16 18 20 21 22 23 24 25 26 27 28 29 31 33 34 35 36 36 36 36 36 36 36 36 35 34 32 32 32 33 34 34 35 36 37 38 39 40 40 39 36 34 31
13 15 17 20 22 24 24 25 27 28 29 30 31 32 33 34 35 35 35 35 34 33 33 32 30 29 28 28 29 30 31 32 33 35 36 37 38 37 36 34 32 29 26 24
14 16 18 21 23 25 26 27 28 29 29 29 29 30 30 30 30 30 30 28 27 25 24 23 23 23 24 25 26 28 30 32 34 36 36 36 34 32 29 27 25 24 24 24
Wind_Direction
224 225 225 227 229 229 232 235 236 233 229 232 232 235 229 221 226 237 248 259 268 276 282 287 292 296 300 304 308 310 306 302 301 298 294 292 291 291 292 293 292 292 293 293
227 226 223 224 225 225 228 231 232 229 227 234 236 238 239 235 231 234 247 258 268 275 281 287 291 295 298 302 304 304 301 296 292 291 288 285 283 283 284 287 288 289 289 288
230 223 222 225 225 226 229 230 229 227 222 230 239 240 238 240 237 234 242 254 266 274 280 285 290 294 296 298 299 298 295 292 288 286 285 282 279 279 282 285 287 288 286 285
222 214 220 222 221 220 223 227 229 227 227 229 238 243 236 235 233 233 239 249 260 269 275 281 286 290 292 293 293 294 293 289 285 286 286 283 280 280 283 286 288 287 287 288
221 215 220 222 221 222 218 220 227 233 238 237 236 245 243 237 238 240 243 249 257 266 273 278 282 285 286 286 288 292 291 288 286 285 286 285 282 282 284 286 286 287 290 292
214 211 213 212 213 219 219 227 235 240 244 247 245 250 250 241 242 244 247 252 256 262 267 271 277 280 281 282 284 287 286 284 283 284 285 284 284 285 286 287 289 290 293 294
208 209 209 205 203 205 215 228 237 241 244 246 235 243 239 229 237 243 247 249 249 251 259 267 271 272 273 273 276 279 279 278 282 285 285 286 287 287 287 288 290 291 292 294
211 211 211 207 205 207 218 229 238 245 248 241 225 236 240 237 242 248 254 256 257 258 263 268 269 267 268 270 273 275 279 284 286 286 286 288 289 290 291 290 291 292 293 293
214 211 207 205 204 219 231 241 250 253 251 250 239 241 248 250 255 262 269 273 274 273 271 270 270 269 271 274 278 278 281 284 283 284 286 288 291 293 293 293 294 295 296 296
220 211 201 201 208 219 228 240 248 250 252 251 246 244 247 248 252 256 261 265 267 268 269 270 272 275 278 284 285 283 280 279 280 282 285 289 291 293 293 293 294 295 297 298
219 216 208 210 219 228 223 228 238 246 249 253 256 255 253 252 251 253 257 262 265 267 269 272 277 280 284 289 288 279 276 277 279 281 284 287 289 291 291 292 293 296 299 300
223 221 216 211 220 232 227 228 234 239 244 250 255 256 257 256 256 258 262 265 266 268 271 274 279 280 285 289 282 274 273 275 277 279 282 285 287 289 289 292 295 298 300 300
224 226 223 212 214 219 216 218 224 232 238 243 248 254 259 260 262 263 264 265 265 268 271 274 280 283 287 287 278 271 272 273 274 277 280 283 286 288 290 293 296 297 298 297
223 226 227 221 218 220 218 219 223 229 236 241 247 255 263 265 266 266 265 265 266 267 270 276 282 285 287 288 284 278 276 275 274 276 279 283 286 288 290 292 294 294 294 294
230 229 231 229 226 230 232 234 236 237 239 244 251 257 263 267 268 268 268 268 267 269 275 281 285 288 290 291 288 284 281 278 278 279 281 284 286 288 289 291 292 293 293 293
237 237 238 239 237 237 243 250 253 253 251 251 255 258 261 263 265 266 266 267 269 274 281 285 287 289 289 289 288 286 285 283 283 284 284 285 286 287 289 291 292 293 294 296
244 243 244 246 248 247 247 247 249 251 254 256 256 257 258 259 261 263 265 268 275 287 290 288 287 287 287 287 288 288 288 288 288 288 288 288 289 289 289 290 291 294 295 298
249 251 252 253 252 252 250 249 248 248 250 252 253 255 258 262 265 269 273 279 285 289 289 288 287 287 288 289 290 291 291 290 290 290 290 290 287 286 288 289 292 295 297 299
244 247 250 249 247 246 245 247 249 249 250 251 253 255 259 263 268 272 277 281 284 286 288 288 289 289 290 291 292 292 291 290 289 287 285 283 283 287 290 292 295 296 298 299
242 244 247 249 251 252 250 250 251 252 253 255 257 259 262 266 269 272 275 279 282 284 287 288 289 290 290 291 292 293 292 290 287 284 282 283 286 289 291 294 296 298 300 302
245 246 249 251 255 257 258 261 261 258 258 259 260 263 265 268 271 274 277 279 281 283 284 285 286 287 289 291 293 294 293 291 289 287 287 288 290 291 294 297 299 301 303 304
246 247 249 253 256 260 263 267 268 267 263 261 262 263 266 268 271 274 276 278 280 281 281 282 283 286 289 291 292 293 292 291 290 290 290 292 294 296 298 300 302 304 305 306
258 262 267 270 271 271 271 271 271 270 268 266 267 268 268 270 272 274 275 278 279 279 280 282 284 287 289 290 291 291 290 291 293 294 296 298 300 302 303 305 306 307 307 307
264 265 268 271 272 272 272 271 270 270 270 270 270 271 273 275 276 277 279 279 280 280 281 283 285 287 288 289 290 292 294 297 298 299 300 302 304 306 307 307 307 306 306 306
261 263 267 270 272 273 272 272 271 270 270 270 271 274 276 278 280 281 282 282 281 281 282 283 284 285 287 290 294 298 300 301 302 303 304 305 306 307 307 307 306 306 306 306
273 273 272 274 276 276 277 276 275 274 273 274 275 276 277 279 281 282 282 282 281 280 280 280 281 285 291 297 301 304 305 306 306 306 306 307 308 309 310 310 309 310 309 308
Height
5821 5826 5831 5835 5838 5842 5843 5845 5848 5853 5855 5853 5853 5855 5858 5861 5862 5862 5862 5861 5861 5861 5862 5862 5862 5861 5861 5860 5859 5857 5856 5854 5853 5851 5850 5849 5849 5848 5846 5843 5841 5840 5838 5835
5816 5821 5826 5828 5830 5833 5835 5837 5841 5846 5849 5847 5847 5848 5851 5854 5856 5857 5857 5856 5856 5855 5855 5855 5856 5855 5854 5854 5853 5852 5851 5849 5847 5845 5845 5844 5843 5841 5838 5835 5832 5830 5828 5826
5811 5818 5819 5820 5823 5826 5829 5832 5836 5839 5841 5840 5841 5843 5846 5848 5850 5852 5853 5853 5851 5850 5849 5849 5849 5850 5849 5849 5848 5847 5845 5842 5840 5837 5837 5836 5835 5833 5831 5827 5824 5822 5819 5816
5805 5809 5810 5813 5817 5820 5824 5828 5830 5832 5833 5834 5836 5836 5841 5842 5844 5845 5847 5848 5847 5845 5844 5844 5845 5845 5844 5843 5842 5840 5838 5835 5831 5829 5828 5828 5826 5825 5823 5819 5816 5813 5810 5807
5800 5803 5805 5809 5813 5816 5819 5822 5824 5825 5827 5829 5831 5831 5835 5838 5838 5840 5841 5841 5841 5840 5839 5839 5839 5839 5839 5837 5836 5834 5830 5827 5824 5821 5821 5820 5819 5817 5815 5812 5808 5805 5801 5798
5794 5797 5800 5805 5809 5812 5814 5817 5819 5820 5821 5824 5827 5826 5828 5832 5832 5833 5833 5834 5835 5834 5833 5832 5833 5833 5832 5831 5829 5827 5824 5820 5817 5815 5815 5813 5811 5810 5807 5804 5800 5796 5793 5790
5787 5790 5794 5798 5801 5805 5808 5812 5814 5815 5816 5820 5821 5820 5823 5823 5823 5823 5823 5824 5826 5827 5826 5826 5827 5827 5826 5823 5821 5818 5815 5811 5809 5809 5807 5806 5804 5802 5800 5797 5793 5789 5785 5781
5783 5787 5790 5793 5796 5800 5803 5806 5809 5811 5813 5814 5815 5815 5817 5817 5817 5817 5817 5818 5819 5820 5820 5820 5820 5819 5817 5815 5812 5809 5805 5803 5802 5802 5801 5799 5797 5795 5792 5788 5785 5780 5776 5772
5779 5785 5789 5792 5795 5797 5799 5801 5804 5806 5807 5808 5809 5811 5811 5811 5811 5811 5811 5812 5813 5814 5814 5814 5812 5811 5810 5807 5804 5801 5799 5797 5796 5795 5793 5791 5789 5786 5782 5778 5774 5770 5765 5761
5775 5781 5785 5787 5789 5790 5794 5797 5798 5799 5800 5801 5803 5805 5806 5805 5805 5805 5805 5806 5807 5807 5806 5806 5805 5803 5802 5800 5797 5793 5791 5790 5789 5788 5786 5783 5780 5776 5773 5769 5764 5760 5755 5751
5768 5773 5779 5781 5782 5783 5786 5789 5790 5792 5793 5794 5796 5800 5799 5800 5800 5800 5799 5799 5799 5799 5798 5798 5797 5795 5794 5792 5789 5787 5785 5784 5782 5780 5777 5774 5770 5766 5762 5758 5754 5749 5745 5740
5760 5765 5770 5775 5778 5778 5779 5781 5783 5785 5786 5788 5789 5794 5792 5792 5793 5793 5793 5792 5791 5791 5790 5790 5789 5787 5786 5783 5781 5780 5778 5777 5774 5771 5768 5764 5760 5756 5752 5747 5742 5737 5732 5727
5753 5758 5763 5770 5774 5772 5772 5772 5774 5776 5778 5780 5782 5785 5782 5783 5785 5785 5785 5784 5783 5783 5783 5782 5781 5779 5777 5776 5774 5772 5771 5768 5765 5762 5758 5754 5749 5745 5741 5736 5731 5725 5720 5715
5747 5751 5756 5761 5763 5763 5764 5765 5766 5769 5770 5772 5774 5775 5775 5775 5777 5777 5776 5776 5775 5774 5774 5773 5772 5771 5769 5767 5765 5763 5762 5759 5755 5751 5747 5743 5738 5733 5728 5723 5718 5712 5707 5701
5742 5745 5748 5753 5756 5757 5758 5757 5758 5760 5761 5765 5767 5768 5768 5768 5769 5768 5768 5767 5766 5764 5764 5764 5763 5762 5760 5758 5756 5754 5751 5748 5744 5740 5735 5730 5725 5720 5715 5710 5704 5699 5693 5687
5734 5738 5742 5745 5749 5752 5752 5750 5749 5750 5753 5757 5760 5762 5762 5761 5760 5759 5758 5757 5755 5753 5754 5754 5753 5752 5750 5748 5746 5743 5740 5736 5732 5727 5722 5717 5712 5707 5701 5696 5690 5684 5679 5674
5725 5730 5733 5737 5740 5742 5742 5741 5742 5743 5745 5750 5752 5754 5753 5752 5751 5750 5748 5746 5744 5743 5744 5744 5743 5741 5739 5736 5734 5730 5727 5722 5718 5713 5708 5703 5698 5692 5687 5682 5677 5672 5666 5660
5717 5720 5724 5727 5731 5732 5730 5729 5732 5735 5738 5740 5742 5744 5744 5743 5741 5739 5738 5736 5735 5734 5733 5732 5730 5728 5726 5723 5720 5716 5712 5708 5703 5698 5694 5689 5684 5679 5674 5669 5664 5658 5653 5647
5710 5712 5715 5718 5720 5722 5722 5722 5724 5726 5727 5730 5732 5734 5734 5733 5732 5730 5728 5727 5725 5723 5721 5720 5718 5716 5714 5711 5707 5703 5699 5694 5690 5686 5682 5677 5672 5666 5662 5657 5652 5646 5641 5635
5702 5704 5707 5708 5710 5712 5715 5716 5716 5718 5718 5721 5722 5722 5722 5722 5722 5721 5718 5717 5715 5713 5711 5709 5707 5705 5703 5699 5695 5691 5687 5682 5678 5674 5670 5665 5661 5655 5650 5645 5640 5634 5629 5623
5695 5696 5698 5700 5701 5703 5707 5708 5708 5711 5712 5712 5712 5711 5710 5710 5710 5710 5708 5706 5704 5703 5701 5700 5698 5695 5692 5688 5684 5679 5675 5671 5667 5663 5659 5654 5650 5645 5639 5634 5628 5623 5617 5612
5690 5691 5692 5693 5695 5699 5699 5699 5700 5701 5701 5701 5701 5700 5701 5701 5700 5699 5698 5696 5694 5693 5691 5690 5688 5685 5681 5677 5673 5669 5665 5661 5657 5652 5648 5644 5639 5634 5628 5623 5617 5612 5606 5600
5685 5687 5687 5689 5691 5691 5691 5692 5692 5692 5692 5692 5691 5691 5691 5691 5690 5690 5688 5687 5685 5683 5682 5680 5678 5675 5671 5668 5664 5660 5656 5652 5647 5642 5637 5632 5627 5622 5617 5612 5606 5601 5595 5589
5681 5681 5682 5682 5682 5683 5683 5684 5684 5684 5684 5683 5683 5682 5682 5681 5680 5680 5679 5677 5676 5674 5673 5671 5668 5665 5662 5659 5655 5651 5647 5643 5638 5633 5627 5622 5617 5612 5607 5601 5596 5591 5586 5581
5677 5677 5677 5676 5676 5676 5676 5676 5676 5676 5675 5675 5674 5674 5673 5672 5671 5670 5669 5668 5666 5665 5663 5662 5659 5657 5654 5651 5647 5643 5639 5634 5629 5624 5619 5613 5608 5603 5598 5592 5587 5582 5578 5575
5672 5672 5672 5671 5670 5669 5669 5668 5667 5667 5667 5666 5666 5665 5664 5663 5662 5661 5660 5658 5657 5657 5655 5654 5652 5650 5647 5643 5640 5635 5631 5626 5621 5615 5610 5604 5599 5594 5589 5584 5580 5576 5572 5569